Location: Biharia
(46.4333°N, 22.8000°E)
Time: 00:11:40
(UTC+00:00)

Cosmos 2263 Rocket - Pass Details

Date: 16 October 2021
Orbit: 825 x 847 km, 71.0° (Epoch: 26 November)

Event Time Altitude Azimuth Distance (km) Brightness Sun altitude
Rises 19:04:19 0° 319° (NW) 3,373 6.2 -35.1°
Reaches altitude 10° 19:07:30 10° 301° (WNW) 2,433 5.4 -35.6°
Maximum altitude 19:11:04 18° 261° (W) 1,939 4.5 -36.2°
Enters shadow 19:12:51 15° 238° (WSW) 2,069 4.4 -36.4°
